Terminal Aerodrome Forecast
Issued by NWS

Home | Current Version | Previous Version | Text Only | Print | Product List | Glossary On
Versions: 1 2 3 4 5 6 7 8 9 10 11 12 13 14 15 16 17 18 19 20 21 22 23 24 25 26 27 28 29 30 31 32 33 34 35 36 37 38 39 40 41 42 43 44 45 46 47 48 49 50
000
FTAK31 PANC 011142
TAFASD
TAF
PASD 011142Z 0112/0212 36005KT P6SM FEW200
     FM011400 14006KT P6SM FEW080 BKN150 OVC200
     FM012300 16010KT P6SM -SHRA BKN050 OVC120
     FM020200 15010KT P6SM -RA BKN010 OVC020
      AMD LTD TO CLD VIS AND WIND=

USA.gov is the U.S. government's official web portal to all federal, state and local government web resources and services.